Location: Brompton
(51.4000°N, 0.5333°E)
Time: 12:01:59
(UTC+00:00)

Cosmos 1898 Rocket - Pass Details

Date: 27 September 2021
Orbit: 752 x 784 km, 74.0° (Epoch: 17 October)

Event Time Altitude Azimuth Distance (km) Brightness Sun altitude
Exits shadow 21:52:25 19° 269° (W) 1,757 5.6 -34.9°
Maximum altitude 21:54:56 28° 311° (NW) 1,431 5.3 -35.1°
Drops below altitude 10° 21:59:26 10° 9° (N) 2,326 6.5 -35.5°
Sets 22:02:11 0° 21° (NNE) 3,262 7.2 -35.8°
